Probability
74 100 100 100 100 100 100 100 100 100 100 100 100 100 100 100 100 100 100 100 100 100 100 100 100 100 100 100 100 100 100 100 100 100 100 100 100 100 100 100 100 100 100
90 100 100 100 100 100 100 100 100 100 100 100 100 100 100 100 100 100 100 100 100 100 100 100 100 97 97 97 97 97 100 100 100 100 100 100 100 100 100 100 100 100 100
90 100 100 100 100 100 100 100 100 100 100 100 100 100 100 100 100 100 100 100 100 100 100 97 97 90 90 90 94 94 97 97 97 97 97 90 100 100 100 100 100 100 100
90 100 100 100 100 100 100 100 100 100 100 100 100 100 100 100 100 100 100 100 100 100 97 94 87 84 81 77 81 90 87 90 90 84 58 84 97 100 100 100 100 100 100
90 100 100 100 100 100 100 100 100 100 100 100 100 100 100 100 100 100 100 100 100 97 94 84 65 65 65 61 61 68 74 71 74 48 29 42 81 100 100 100 100 100 100
94 100 100 100 100 100 100 100 100 100 100 100 100 100 100 100 100 100 100 100 100 97 81 68 61 61 55 35 39 45 55 55 35 13 32 48 74 97 100 100 100 100 100
94 100 100 100 100 100 100 100 100 100 100 100 100 100 100 100 100 100 100 100 94 77 74 65 55 48 35 26 26 29 45 45 10 3 13 39 61 84 100 100 100 100 100
90 100 100 100 100 100 100 100 100 100 100 100 100 100 100 100 100 100 100 97 87 74 68 55 48 39 32 23 23 29 35 26 23 3 10 26 48 77 100 100 100 100 100
77 100 100 100 100 100 100 100 100 100 100 100 100 100 100 100 100 100 100 94 87 81 65 58 42 39 29 29 32 42 39 32 3 0 26 26 65 87 100 100 100 100 100
61 94 100 100 100 100 100 100 100 100 100 100 100 100 100 100 100 100 100 94 90 81 68 68 58 55 52 45 42 45 39 32 0 6 16 42 71 81 94 97 97 100 97
35 74 81 94 97 100 100 100 100 100 100 100 100 100 100 100 100 100 97 100 90 84 74 74 68 71 58 45 45 52 29 3 0 6 10 61 77 84 90 94 97 94 90
26 26 65 77 84 90 94 100 100 100 100 100 100 100 97 71 71 100 100 100 97 94 81 74 77 71 45 26 16 19 16 3 3 6 13 71 81 87 87 87 84 87 84
23 16 35 39 55 55 74 97 97 97 94 87 90 97 52 16 19 71 68 97 90 87 68 65 68 52 32 19 3 0 0 0 3 6 32 84 87 84 81 74 77 74 68
45 29 29 32 29 35 68 74 74 71 65 55 52 58 23 3 3 19 23 61 68 55 29 13 16 26 13 10 3 3 0 0 0 6 23 84 87 77 65 61 61 55 58
65 48 42 39 35 42 61 48 58 55 52 26 32 39 13 3 3 10 16 29 26 16 13 10 10 6 6 6 6 3 3 0 0 0 10 65 61 58 58 45 45 48 42
71 61 68 65 52 68 68 55 55 55 52 19 29 58 26 13 13 19 13 16 13 10 13 6 6 6 6 6 6 0 0 0 0 3 3 26 45 45 48 42 39 32 32
58 65 71 84 74 77 77 68 71 68 71 35 35 61 48 23 10 13 10 13 10 10 10 6 3 3 3 0 0 0 0 0 0 0 0 3 3 26 32 32 39 29 29
35 48 84 94 90 90 94 77 81 84 84 61 52 58 55 39 23 6 10 6 6 0 0 0 0 0 0 0 0 0 0 0 0 0 0 0 0 0 3 10 13 10 13
16 52 81 94 97 97 87 84 77 77 77 61 55 45 42 42 26 10 3 3 0 0 0 0 0 0 0 0 0 0 0 0 0 0 0 0 0 0 0 0 0 0 0
42 55 71 90 94 90 84 84 81 61 52 39 35 39 23 32 26 10 3 0 0 0 0 0 0 0 0 0 0 0 0 0 0 0 0 0 0 0 0 0 0 0 0
35 48 61 87 97 84 87 81 74 61 48 32 29 19 23 26 10 6 3 0 0 0 0 0 0 0 0 0 0 0 0 0 0 0 0 0 0 0 0 0 0 0 0
32 42 65 84 90 84 81 71 55 45 23 13 19 13 16 13 6 10 3 0 0 0 0 0 0 0 0 0 0 0 0 0 0 0 0 0 0 0 0 0 0 0 0
26 42 55 65 77 84 77 55 48 26 16 16 13 10 3 10 10 3 3 0 0 0 0 0 0 0 0 0 0 0 0 0 0 0 0 0 0 0 0 0 0 0 0
29 39 45 61 65 65 58 48 42 35 19 10 6 0 0 3 0 0 0 0 0 0 0 0 0 0 0 0 0 0 0 0 0 0 0 0 0 0 0 0 0 0 0
23 29 35 32 42 32 26 29 23 13 10 3 0 0 0 0 0 0 0 0 0 0 0 0 0 0 0 0 0 0 0 0 0 0 0 0 0 0 0 0 0 0 0
13 13 16 10 10 10 6 10 10 10 3 3 0 0 0 0 0 0 0 0 0 0 0 0 0 0 0 0 0 0 0 0 0 0 0 0 0 0 0 0 0 0 0
Height
5906 5905 5906 5906 5907 5908 5908 5909 5909 5910 5910 5911 5911 5911 5911 5911 5911 5911 5911 5910 5910 5909 5909 5908 5908 5907 5907 5906 5905 5905 5904 5904 5903 5903 5902 5902 5902 5901 5901 5901 5901 5901 5901
5904 5904 5904 5905 5905 5906 5907 5908 5908 5909 5909 5909 5910 5910 5910 5910 5910 5909 5909 5909 5908 5908 5907 5907 5906 5906 5905 5904 5904 5903 5903 5902 5901 5901 5901 5900 5900 5899 5899 5899 5898 5898 5898
5903 5903 5903 5904 5904 5905 5906 5907 5907 5908 5908 5908 5909 5909 5909 5908 5908 5908 5908 5907 5907 5906 5906 5905 5905 5904 5903 5903 5902 5902 5901 5900 5900 5899 5899 5898 5898 5897 5897 5896 5896 5896 5896
5901 5902 5902 5903 5903 5904 5905 5906 5906 5907 5907 5907 5908 5908 5908 5907 5907 5907 5907 5906 5906 5905 5905 5904 5903 5903 5902 5901 5901 5900 5899 5899 5898 5897 5897 5897 5896 5895 5895 5895 5894 5894 5894
5900 5901 5901 5902 5902 5903 5904 5905 5905 5906 5906 5907 5907 5907 5907 5907 5907 5906 5906 5905 5905 5905 5904 5903 5903 5902 5901 5900 5899 5898 5898 5897 5896 5896 5896 5895 5894 5893 5893 5893 5892 5892 5892
5899 5900 5900 5900 5901 5902 5903 5904 5904 5905 5905 5906 5906 5906 5906 5906 5906 5906 5905 5905 5905 5904 5904 5903 5902 5901 5900 5899 5898 5897 5896 5896 5895 5894 5894 5893 5892 5891 5891 5891 5891 5890 5890
5898 5898 5899 5900 5900 5901 5902 5903 5904 5904 5905 5905 5906 5906 5906 5906 5905 5905 5905 5905 5904 5904 5903 5902 5901 5900 5899 5897 5896 5895 5895 5895 5894 5893 5893 5892 5891 5890 5889 5889 5889 5888 5888
5897 5897 5898 5899 5900 5901 5902 5902 5903 5904 5904 5905 5905 5905 5905 5905 5905 5905 5905 5904 5903 5903 5902 5901 5900 5899 5897 5896 5894 5894 5893 5893 5892 5891 5891 5890 5889 5889 5888 5888 5887 5886 5886
5896 5897 5898 5899 5900 5901 5902 5902 5903 5904 5904 5904 5905 5905 5905 5905 5904 5904 5904 5903 5902 5902 5901 5900 5898 5897 5895 5893 5892 5892 5891 5891 5890 5889 5888 5888 5887 5887 5886 5886 5885 5884 5883
5896 5897 5898 5899 5900 5901 5901 5902 5903 5904 5904 5904 5904 5904 5904 5904 5904 5903 5903 5902 5901 5900 5899 5898 5896 5894 5893 5891 5889 5889 5889 5888 5887 5887 5886 5885 5885 5884 5884 5883 5882 5882 5881
5896 5897 5898 5899 5900 5901 5901 5902 5903 5903 5903 5904 5904 5904 5904 5903 5903 5902 5901 5900 5899 5898 5897 5895 5894 5892 5890 5888 5886 5886 5885 5885 5884 5883 5882 5882 5881 5881 5880 5880 5879 5878 5878
5895 5896 5897 5898 5899 5900 5901 5902 5902 5903 5903 5903 5903 5903 5903 5902 5902 5901 5900 5898 5897 5896 5894 5892 5891 5889 5887 5885 5883 5882 5881 5881 5880 5880 5879 5878 5878 5877 5876 5875 5875 5874 5874
5895 5896 5897 5898 5899 5900 5901 5901 5901 5902 5902 5902 5902 5902 5901 5901 5900 5899 5898 5896 5895 5893 5891 5889 5888 5886 5883 5881 5879 5878 5877 5876 5876 5875 5874 5873 5873 5872 5871 5871 5870 5870 5869
5894 5895 5896 5897 5898 5899 5900 5900 5900 5901 5901 5901 5900 5900 5899 5899 5898 5897 5895 5894 5892 5891 5889 5887 5884 5882 5880 5877 5875 5873 5872 5872 5871 5869 5869 5868 5867 5866 5866 5865 5865 5864 5864
5892 5893 5894 5896 5897 5898 5898 5899 5899 5899 5899 5899 5898 5898 5897 5896 5895 5894 5893 5892 5890 5888 5886 5883 5881 5878 5876 5873 5871 5868 5867 5866 5865 5864 5863 5862 5861 5860 5860 5859 5859 5858 5858
5890 5891 5892 5894 5895 5896 5896 5897 5897 5896 5896 5896 5895 5895 5894 5894 5892 5891 5890 5889 5887 5885 5882 5880 5878 5875 5873 5870 5867 5864 5862 5861 5860 5859 5858 5857 5855 5854 5853 5853 5852 5851 5851
5888 5890 5891 5892 5893 5893 5894 5894 5894 5893 5893 5892 5892 5892 5891 5890 5889 5888 5887 5885 5883 5881 5879 5877 5874 5872 5869 5866 5863 5861 5858 5856 5855 5853 5852 5851 5850 5848 5847 5846 5845 5844 5844
5884 5887 5888 5889 5890 5891 5891 5891 5891 5890 5889 5889 5888 5888 5887 5885 5884 5883 5882 5880 5878 5876 5874 5872 5870 5867 5865 5862 5860 5857 5854 5852 5850 5848 5846 5845 5844 5842 5841 5840 5839 5837 5836
5880 5882 5884 5885 5886 5886 5887 5887 5887 5886 5886 5885 5884 5883 5882 5880 5879 5877 5875 5874 5872 5870 5868 5866 5864 5862 5860 5858 5856 5853 5851 5848 5845 5843 5841 5839 5838 5836 5835 5833 5832 5830 5829
5875 5876 5878 5880 5880 5881 5881 5881 5881 5881 5880 5879 5878 5877 5875 5874 5872 5870 5868 5867 5865 5864 5862 5860 5859 5857 5855 5853 5851 5848 5846 5843 5841 5838 5836 5833 5832 5830 5828 5826 5825 5823 5821
5870 5871 5873 5874 5875 5875 5874 5874 5874 5874 5873 5872 5871 5870 5868 5867 5865 5864 5862 5860 5859 5857 5856 5854 5852 5851 5849 5847 5845 5843 5840 5838 5835 5832 5830 5827 5825 5823 5821 5819 5817 5815 5813
5866 5866 5867 5868 5869 5870 5869 5868 5868 5867 5866 5865 5864 5863 5861 5859 5857 5856 5854 5852 5851 5850 5848 5847 5845 5843 5842 5840 5839 5836 5834 5832 5829 5826 5823 5821 5818 5815 5813 5810 5808 5806 5803
5861 5861 5861 5862 5862 5863 5863 5863 5862 5860 5859 5858 5856 5854 5852 5850 5848 5847 5845 5844 5843 5841 5840 5839 5837 5835 5834 5832 5830 5829 5827 5824 5822 5819 5816 5813 5809 5806 5803 5800 5797 5794 5791
5856 5855 5855 5856 5857 5857 5857 5856 5855 5853 5852 5850 5848 5846 5844 5841 5840 5838 5836 5835 5834 5832 5831 5830 5828 5826 5825 5823 5821 5819 5817 5815 5813 5810 5807 5803 5800 5796 5792 5788 5785 5781 5777
5850 5851 5851 5851 5851 5850 5849 5848 5847 5846 5844 5842 5840 5838 5836 5834 5832 5830 5828 5827 5825 5823 5822 5820 5819 5817 5815 5813 5811 5809 5807 5804 5801 5799 5796 5792 5788 5783 5779 5775 5771 5767 5763
5844 5845 5845 5844 5843 5841 5841 5840 5839 5837 5836 5833 5831 5830 5828 5826 5824 5822 5820 5818 5816 5814 5812 5811 5809 5807 5805 5802 5800 5797 5795 5792 5789 5786 5783 5779 5775 5770 5764 5760 5755 5751 5747
Wind_Speed
8 7 7 8 9 10 10 11 11 11 11 11 11 11 11 11 12 12 13 13 13 14 14 14 14 14 14 13 13 13 13 13 13 12 11 11 11 11 10 10 9 9 9
9 8 8 9 10 10 11 11 11 11 11 12 11 11 11 11 12 12 13 13 13 14 14 14 14 14 14 14 14 14 14 13 13 12 12 12 11 11 11 11 11 11 10
9 8 8 9 9 10 11 10 10 11 11 10 10 10 10 10 11 11 12 12 12 13 13 13 13 13 13 13 13 13 13 12 12 12 11 11 12 11 11 11 11 11 12
7 8 8 8 9 9 10 9 9 9 9 8 8 8 8 8 9 9 10 10 11 11 11 12 12 12 12 12 12 12 12 12 12 12 11 11 12 12 12 12 12 12 12
7 7 7 7 8 8 8 8 8 8 7 7 6 6 6 6 7 7 8 9 9 10 10 10 11 11 12 12 12 13 12 12 12 12 11 12 13 12 12 12 12 12 12
6 6 6 6 7 7 8 7 7 7 6 6 5 5 4 5 5 6 7 7 8 8 9 9 10 11 12 13 13 13 13 12 12 12 12 12 13 12 12 12 12 12 12
6 5 5 5 6 7 7 7 7 6 5 4 4 3 3 3 4 5 6 6 7 7 8 9 10 11 12 13 13 13 13 12 13 13 12 12 12 11 11 12 12 12 12
5 5 5 5 6 6 6 6 6 5 4 4 3 2 1 1 2 4 5 5 6 7 8 8 9 11 12 13 14 14 14 13 13 14 13 13 14 14 13 13 14 13 13
5 5 5 5 5 5 5 5 5 4 4 4 3 2 1 0 1 2 4 5 6 7 8 9 10 11 13 14 15 15 14 14 14 15 15 14 14 14 13 14 15 14 14
5 5 4 5 5 5 5 5 5 5 4 4 3 2 1 1 1 2 4 5 6 7 8 9 10 12 13 15 16 16 15 15 15 15 16 15 15 15 15 15 15 15 15
5 5 5 5 5 5 5 5 4 4 4 3 2 2 1 1 2 3 4 6 7 8 9 10 11 13 14 16 16 16 16 16 16 16 16 16 16 16 16 16 17 17 17
6 6 6 6 6 5 5 4 3 3 3 2 2 1 1 1 2 4 5 6 8 9 10 11 12 14 15 17 17 17 16 17 17 17 18 18 17 18 19 18 18 19 19
7 7 7 6 6 5 4 4 3 3 2 1 0 1 2 3 4 5 6 7 8 9 11 11 13 14 16 18 18 18 18 18 18 18 19 20 20 20 20 20 20 20 21
8 7 7 6 5 4 3 2 2 1 1 0 1 2 3 5 6 7 7 8 9 11 12 13 14 15 16 17 18 19 19 18 18 19 20 20 21 21 22 22 22 22 23
8 8 7 6 5 3 2 1 0 1 2 2 3 3 4 6 7 7 7 8 10 11 13 14 16 16 17 17 19 20 19 19 19 19 20 20 22 23 24 25 25 25 25
9 8 7 7 5 4 3 2 3 4 5 5 5 5 6 7 8 8 9 10 12 13 13 14 15 16 16 17 18 19 20 20 20 19 20 21 22 24 25 26 26 27 28
12 10 9 8 7 6 5 5 6 7 7 8 8 9 9 10 10 11 12 13 13 13 14 14 15 16 17 17 18 19 20 19 20 20 20 21 22 24 27 28 29 29 30
14 13 12 10 10 9 9 9 9 10 10 11 12 12 12 13 14 15 15 16 16 16 16 16 17 17 17 18 18 19 19 20 20 20 20 21 23 24 26 28 30 31 32
15 15 14 13 13 12 13 13 13 13 14 15 16 16 16 17 18 18 19 19 20 19 19 19 19 19 19 20 20 20 21 21 22 23 23 23 24 25 27 28 30 32 33
18 17 15 15 15 15 15 16 17 18 18 19 20 21 22 21 22 22 23 23 23 22 22 22 22 22 22 22 22 22 23 23 24 25 26 27 28 28 29 30 31 32 34
20 19 18 17 16 17 19 20 22 23 23 24 25 26 27 27 27 27 27 27 26 27 26 25 25 25 25 26 26 25 25 25 26 26 28 29 30 31 32 33 34 35 37
21 20 20 18 19 19 21 24 26 27 27 29 30 31 32 32 32 32 31 31 30 30 29 29 28 28 28 29 29 28 28 28 29 30 32 33 34 35 36 37 38 40 41
22 23 23 22 23 23 25 27 29 31 32 34 34 35 36 37 36 36 34 34 32 32 32 32 31 31 31 31 31 32 32 31 32 33 35 37 39 40 41 43 44 46 47
26 26 26 25 25 27 29 30 32 34 36 37 37 38 38 38 38 38 38 36 36 37 36 34 34 34 34 35 36 36 36 37 37 38 40 42 43 45 47 48 50 52 54
29 29 29 30 31 33 33 33 34 36 38 39 38 38 37 37 37 38 38 38 39 39 37 37 38 38 39 39 40 40 41 42 43 44 45 46 48 50 51 54 56 57 59
33 33 33 35 35 35 36 36 38 39 40 40 39 39 39 39 39 40 41 42 42 41 41 41 41 42 43 43 44 45 46 47 48 49 50 51 53 55 57 59 60 62 63
Wind_Direction
283 274 261 248 240 235 237 242 246 251 257 261 264 268 272 277 282 285 286 286 286 286 287 286 285 284 282 281 281 281 280 278 274 269 265 261 260 258 258 258 258 257 258
282 272 261 250 242 237 238 243 250 253 257 261 263 266 270 274 278 283 287 288 287 288 288 288 287 286 285 283 283 283 283 281 278 273 268 264 263 263 263 263 263 263 264
279 267 255 248 240 236 238 243 249 250 252 256 259 264 268 273 278 282 286 288 289 291 291 291 290 289 289 289 288 288 287 285 282 278 274 269 266 266 264 263 264 264 264
271 260 250 243 238 235 235 237 240 240 242 246 253 261 267 273 278 281 285 288 291 293 293 293 293 294 295 295 293 291 290 288 286 284 280 276 273 268 264 264 264 263 263
262 253 245 238 231 226 223 226 228 227 230 235 242 251 262 271 276 282 287 291 293 295 296 297 299 300 300 299 296 293 291 290 289 287 286 282 276 269 266 267 266 263 262
255 250 245 234 222 216 214 215 213 211 214 220 229 240 254 267 276 283 289 294 298 301 304 305 305 305 304 302 299 295 293 292 291 287 285 284 283 273 267 268 267 263 262
250 245 238 227 215 209 206 203 200 200 199 204 214 222 238 263 280 289 295 299 303 308 310 309 308 306 304 301 299 296 294 293 291 288 288 284 280 274 270 267 264 263 262
246 239 230 220 213 203 193 187 183 183 181 181 181 184 214 277 296 305 310 313 316 318 316 313 311 309 306 302 299 296 294 293 290 289 288 282 280 277 270 267 265 264 263
235 229 218 205 191 181 173 164 159 156 149 145 141 137 132 9 330 329 328 329 330 329 326 321 316 313 308 304 301 300 299 296 291 288 286 283 281 276 272 269 268 265 263
221 215 203 186 169 159 148 140 136 133 129 125 124 117 99 57 9 346 334 333 334 332 328 322 318 316 312 306 304 304 303 300 296 291 287 284 282 276 274 271 269 268 266
214 202 190 177 163 154 144 134 127 122 119 119 117 103 86 43 3 347 336 331 330 326 323 319 317 314 312 308 303 302 302 300 298 292 287 284 282 278 274 272 273 271 269
203 193 188 179 166 153 140 125 115 115 117 123 118 102 15 345 347 348 341 337 336 333 328 322 320 317 315 311 305 300 297 296 295 290 286 283 280 279 276 273 273 272 271
203 191 184 181 166 149 136 121 112 113 117 130 107 351 340 331 330 338 341 339 339 338 335 329 326 321 317 314 307 299 295 293 290 287 283 281 278 278 277 274 274 272 271
211 196 189 189 177 163 146 121 114 111 104 301 298 312 322 327 327 333 338 337 334 334 334 329 324 320 317 316 314 306 300 294 290 285 281 279 277 276 276 276 274 273 271
208 200 198 199 202 203 204 195 108 308 312 312 312 313 322 328 332 331 333 329 330 331 332 332 331 325 319 316 314 312 307 297 290 286 283 279 274 273 274 273 273 272 271
212 211 211 216 230 239 249 269 283 293 303 306 307 307 312 318 324 319 322 323 323 326 329 331 330 325 323 319 315 312 309 303 296 289 284 278 275 273 274 274 274 273 270
210 215 218 226 236 251 263 272 281 290 299 300 300 305 307 310 313 314 315 315 317 320 322 323 324 319 319 319 317 314 311 307 302 294 288 282 277 276 276 276 274 273 271
216 219 224 230 242 256 265 271 279 284 291 294 295 298 297 302 305 307 310 311 312 313 314 318 323 321 319 317 316 314 311 307 303 297 292 288 284 282 278 277 276 274 273
225 225 232 239 246 257 267 274 280 285 289 292 293 294 295 297 300 301 304 305 309 309 309 312 316 316 315 314 311 310 308 305 302 297 294 291 289 286 282 279 277 276 274
237 233 234 243 253 264 273 279 284 288 290 291 293 294 295 295 297 297 298 298 302 304 306 306 309 308 309 309 308 305 304 301 299 297 295 293 289 288 285 282 280 280 279
243 235 234 240 252 266 274 279 283 286 288 289 291 292 291 290 292 292 293 294 297 298 299 302 302 302 303 304 304 302 299 298 297 295 293 291 289 288 287 285 282 280 280
255 248 246 248 254 262 270 276 281 283 286 288 289 289 288 288 289 288 288 290 292 292 294 297 298 300 300 300 299 298 297 295 294 293 291 289 288 288 286 285 284 282 281
263 261 255 258 260 265 269 274 277 280 283 285 286 286 286 286 286 286 286 288 288 290 293 295 297 298 298 297 295 295 293 291 290 290 289 289 288 287 287 286 285 284 282
267 267 264 265 268 269 271 273 276 279 281 283 284 284 284 285 285 286 287 287 287 290 291 293 295 296 296 295 294 293 292 291 289 289 288 287 287 286 285 285 285 284 283
268 271 272 272 272 271 272 273 276 278 279 281 282 282 283 286 287 287 289 291 292 292 291 292 294 294 296 294 293 292 291 290 289 289 288 287 286 285 285 284 283 282 281
267 271 273 274 276 275 277 278 279 279 280 281 281 282 283 284 285 286 288 290 291 291 292 293 293 293 294 294 292 291 291 290 289 288 287 286 285 285 284 283 282 281 281